Tracking 30995 objects as of 5-Jul-2025
HD Live streaming from Space Station
objects crossing your sky now

SL-3 R/B

Track SL-3 R/B now!
10-day predictions
SL-3 R/B is classified as:


NORAD ID: 13068
Int'l Code: 1982-013B
Perigee: 499.6 km
Apogee: 530.0 km
Inclination: 81.2 °
Period: 94.8 minutes
Semi major axis: 6885 km
RCS: 5.3655 m2 (large)
Launch date: February 19, 1982
Source: Commonwealth of Independent States (former USSR) (CIS)
Launch site: PLESETSK MISSILE AND SPACE COMPLEX (PKMTR)

Note: This is a ROCKET BODY
Your satellite tracking list
COSMOS 252 DEB
Track 1 satellite(s)




NASA's NSSDC Master Catalog

Two Line Element Set (TLE):
1 13068U 82013B   25186.55874554  .00003008  00000-0  14007-3 0  9993
2 13068  81.1754  89.8414 0022083 293.9123  65.9793 15.19401390366797
Source of the keplerian elements: AFSPC